| time (UTC) | temp C | wind direction | speed KPH | gust KPH | rain 1hr cm | rain 24hr cm | rain mn cm | humidity % | barometer mb |
| 20260901204547 | 15 | 298 | 0.0 | 0.0 | 0.00 | 0.00 | 0.00 | 77 | 1021.5 |
| 20260901203046 | 15 | 298 | 0.0 | 0.0 | 0.00 | 0.00 | 0.00 | 77 | 1021.5 |
| 20260901201546 | 16 | 298 | 0.0 | 1.6 | 0.00 | 0.00 | 0.00 | 76 | 1021.4 |
| 20260901200045 | 16 | 298 | 0.0 | 0.0 | 0.00 | 0.00 | 0.00 | 74 | 1021.5 |
| 20260901194546 | 16 | 298 | 0.0 | 0.0 | 0.00 | 0.00 | 0.00 | 74 | 1021.5 |
| 20260901193044 | 17 | 298 | 0.0 | 0.0 | 0.00 | 0.00 | 0.00 | 72 | 1021.4 |
| 20260901191545 | 17 | 298 | 0.0 | 0.0 | 0.00 | 0.00 | 0.00 | 70 | 1021.3 |
| 20260901190105 | 18 | 298 | 0.0 | 0.0 | 0.00 | 0.00 | 0.00 | 69 | 1021.2 |
| 20260901184544 | 18 | 298 | 0.0 | 0.0 | 0.00 | 0.00 | 0.00 | 67 | 1021.0 |
| 20260901183044 | 19 | 298 | 0.0 | 0.0 | 0.00 | 0.00 | 0.00 | 62 | 1020.8 |
| 20260901181544 | 20 | 298 | 0.0 | 0.0 | 0.00 | 0.00 | 0.00 | 59 | 1020.7 |
| 20260901180043 | 20 | 298 | 0.0 | 0.0 | 0.00 | 0.00 | 0.00 | 57 | 1020.4 |
| 20260901174550 | 21 | 298 | 0.0 | 0.0 | 0.00 | 0.00 | 0.00 | 55 | 1020.4 |
| 20260901173041 | 21 | 298 | 0.0 | 1.6 | 0.00 | 0.00 | 0.00 | 54 | 1020.3 |
| 20260901171545 | 21 | 298 | 0.0 | 1.6 | 0.00 | 0.00 | 0.00 | 53 | 1020.3 |
| 20260901170041 | 22 | 298 | 0.0 | 1.6 | 0.00 | 0.00 | 0.00 | 52 | 1020.3 |
| 20260901164545 | 22 | 298 | 0.0 | 1.6 | 0.00 | 0.00 | 0.00 | 48 | 1020.4 |
| 20260901163101 | 22 | 298 | 0.0 | 4.8 | 0.00 | 0.00 | 0.00 | 48 | 1020.5 |
| 20260901161539 | 22 | 311 | 0.0 | 6.4 | 0.00 | 0.00 | 0.00 | 48 | 1020.5 |
| 20260901160040 | 22 | 275 | 0.0 | 4.8 | 0.00 | 0.00 | 0.00 | 48 | 1020.4 |
| 20260901154550 | 23 | 291 | 0.0 | 3.2 | 0.00 | 0.00 | 0.00 | 46 | 1020.5 |
| 20260901153041 | 23 | 267 | 0.0 | 3.2 | 0.00 | 0.00 | 0.00 | 47 | 1020.4 |
| 20260901151538 | 23 | 242 | 0.0 | 6.4 | 0.00 | 0.00 | 0.00 | 48 | 1020.3 |
| 20260901150037 | 23 | 268 | 0.0 | 6.4 | 0.00 | 0.00 | 0.00 | 45 | 1020.4 |
| 20260901144536 | 25 | 294 | 0.0 | 6.4 | 0.00 | 0.00 | 0.00 | 43 | 1020.4 |
| 20260901143035 | 24 | 254 | 0.0 | 4.8 | 0.00 | 0.00 | 0.00 | 44 | 1020.5 |
| 20260901141534 | 23 | 240 | 0.0 | 4.8 | 0.00 | 0.00 | 0.00 | 49 | 1020.5 |
| 20260901140033 | 23 | 244 | 0.0 | 8.0 | 0.00 | 0.00 | 0.00 | 46 | 1020.6 |
| 20260901134533 | 24 | 103 | 0.0 | 6.4 | 0.00 | 0.00 | 0.00 | 47 | 1020.6 |
| 20260901133033 | 24 | 273 | 0.0 | 8.0 | 0.00 | 0.00 | 0.00 | 45 | 1020.7 |
| 20260901131529 | 23 | 272 | 0.0 | 8.0 | 0.00 | 0.00 | 0.00 | 46 | 1020.8 |
| 20260901130029 | 23 | 292 | 0.0 | 4.8 | 0.00 | 0.00 | 0.00 | 49 | 1020.9 |
| 20260901124529 | 23 | 213 | 0.0 | 6.4 | 0.00 | 0.00 | 0.00 | 47 | 1021.0 |
| 20260901123027 | 23 | 340 | 1.6 | 6.4 | 0.00 | 0.00 | 0.00 | 49 | 1021.1 |
| 20260901121535 | 23 | 261 | 0.0 | 6.4 | 0.00 | 0.00 | 0.00 | 51 | 1021.1 |
| 20260901120025 | 23 | 276 | 0.0 | 9.7 | 0.00 | 0.00 | 0.00 | 53 | 1021.1 |
| 20260901114525 | 23 | 296 | 0.0 | 14.5 | 0.00 | 0.00 | 0.00 | 51 | 1021.3 |
| 20260901113021 | 23 | 287 | 0.0 | 9.7 | 0.00 | 0.00 | 0.00 | 53 | 1021.4 |
| 20260901111520 | 22 | 294 | 0.0 | 8.0 | 0.00 | 0.00 | 0.00 | 55 | 1021.4 |
| 20260901110019 | 22 | 261 | 0.0 | 9.7 | 0.00 | 0.00 | 0.00 | 55 | 1021.4 |
| 20260901104531 | 22 | 186 | 1.6 | 6.4 | 0.00 | 0.00 | 0.00 | 56 | 1021.5 |
| 20260901103020 | 22 | 290 | 1.6 | 9.7 | 0.00 | 0.00 | 0.00 | 58 | 1021.5 |
| 20260901101515 | 21 | 317 | 1.6 | 8.0 | 0.00 | 0.00 | 0.00 | 61 | 1021.7 |
| 20260901100011 | 21 | 265 | 0.0 | 6.4 | 0.00 | 0.00 | 0.00 | 63 | 1021.7 |
| 20260901094511 | 21 | 290 | 0.0 | 4.8 | 0.00 | 0.00 | 0.00 | 65 | 1021.8 |
| 20260901093006 | 20 | 290 | 0.0 | 8.0 | 0.00 | 0.00 | 0.00 | 66 | 1021.8 |
| 20260901091510 | 20 | 284 | 0.0 | 6.4 | 0.00 | 0.00 | 0.00 | 68 | 1021.9 |
| 20260901090005 | 20 | 286 | 0.0 | 4.8 | 0.00 | 0.00 | 0.00 | 67 | 1021.9 |
| 20260901084605 | 19 | 293 | 0.0 | 4.8 | 0.00 | 0.00 | 0.00 | 69 | 1022.0 |
| 20260901083056 | 18 | 294 | 0.0 | 4.8 | 0.00 | 0.00 | 0.00 | 72 | 1021.9 |
| 20260901081554 | 18 | 292 | 0.0 | 0.0 | 0.00 | 0.00 | 0.00 | 74 | 1021.9 |
| 20260901080106 | 18 | 292 | 0.0 | 1.6 | 0.00 | 0.00 | 0.00 | 74 | 1021.8 |
| 20260901074547 | 17 | 293 | 0.0 | 3.2 | 0.00 | 0.00 | 0.00 | 76 | 1021.7 |
| 20260901073045 | 17 | 293 | 0.0 | 1.6 | 0.00 | 0.00 | 0.00 | 78 | 1021.7 |
| 20260901071532 | 17 | 293 | 0.0 | 1.6 | 0.00 | 0.00 | 0.00 | 79 | 1021.7 |
| 20260901070044 | 16 | 293 | 0.0 | 1.6 | 0.00 | 0.00 | 0.00 | 81 | 1021.7 |
| 20260901064526 | 16 | 293 | 0.0 | 0.0 | 0.00 | 0.00 | 0.00 | 84 | 1021.7 |
| 20260901063027 | 15 | 293 | 0.0 | 0.0 | 0.00 | 0.00 | 0.00 | 86 | 1021.6 |
| 20260901061522 | 14 | 293 | 0.0 | 0.0 | 0.00 | 0.00 | 0.00 | 88 | 1021.5 |
| 20260901060032 | 14 | 293 | 0.0 | 0.0 | 0.00 | 0.00 | 0.00 | 89 | 1021.4 |
| 20260901054525 | 13 | 293 | 0.0 | 0.0 | 0.00 | 0.00 | 0.00 | 92 | 1021.4 |
| 20260901053020 | 12 | 293 | 0.0 | 0.0 | 0.00 | 0.00 | 0.00 | 92 | 1021.3 |
| 20260901051522 | 12 | 293 | 0.0 | 0.0 | 0.00 | 0.00 | 0.00 | 91 | 1021.4 |
| 20260901050017 | 12 | 293 | 0.0 | 0.0 | 0.00 | 0.00 | 0.00 | 91 | 1021.3 |
| 20260901044519 | 12 | 293 | 0.0 | 0.0 | 0.00 | 0.00 | 0.00 | 91 | 1021.3 |
| 20260901043017 | 12 | 293 | 0.0 | 0.0 | 0.00 | 0.00 | 0.00 | 90 | 1021.2 |
| 20260901041512 | 13 | 293 | 0.0 | 0.0 | 0.00 | 0.00 | 0.00 | 90 | 1021.2 |
| 20260901040016 | 13 | 293 | 0.0 | 0.0 | 0.00 | 0.00 | 0.00 | 90 | 1021.1 |
| 20260901034512 | 13 | 293 | 0.0 | 0.0 | 0.00 | 0.00 | 0.00 | 90 | 1021.0 |
| 20260901033027 | 13 | 293 | 0.0 | 0.0 | 0.00 | 0.00 | 0.00 | 90 | 1021.0 |
| 20260901031515 | 13 | 293 | 0.0 | 0.0 | 0.00 | 0.00 | 0.00 | 90 | 1021.1 |
| 20260901030009 | 13 | 293 | 0.0 | 0.0 | 0.00 | 0.00 | 0.00 | 89 | 1021.1 |
| 20260901024509 | 13 | 293 | 0.0 | 0.0 | 0.00 | 0.05 | 0.00 | 89 | 1021.0 |
| 20260901023008 | 13 | 293 | 0.0 | 0.0 | 0.00 | 0.05 | 0.00 | 89 | 1021.0 |
| 20260901021507 | 13 | 293 | 0.0 | 0.0 | 0.00 | 0.05 | 0.00 | 89 | 1021.0 |
| 20260901020006 | 13 | 293 | 0.0 | 0.0 | 0.00 | 0.05 | 0.00 | 89 | 1020.9 |
| 20260901014505 | 13 | 293 | 0.0 | 0.0 | 0.00 | 0.33 | 0.00 | 89 | 1020.8 |
| 20260901013003 | 13 | 293 | 0.0 | 0.0 | 0.00 | 0.33 | 0.00 | 88 | 1020.7 |
| 20260901011501 | 13 | 293 | 0.0 | 0.0 | 0.00 | 0.33 | 0.00 | 88 | 1020.7 |
| 20260901010100 | 13 | 293 | 0.0 | 0.0 | 0.00 | 0.33 | 0.00 | 87 | 1020.6 |
| 20260901004601 | 13 | 293 | 0.0 | 0.0 | 0.00 | 0.89 | 0.00 | 87 | 1020.5 |
| 20260901003106 | 13 | 293 | 0.0 | 0.0 | 0.00 | 0.89 | 0.00 | 88 | 1020.5 |
| 20260901001556 | 13 | 293 | 0.0 | 0.0 | 0.00 | 0.89 | 0.00 | 86 | 1020.4 |
| 20260901000054 | 14 | 293 | 0.0 | 0.0 | 0.00 | 0.89 | 0.00 | 85 | 1020.4 |
| 20260831234552 | 14 | 293 | 0.0 | 0.0 | 0.00 | 0.89 | 0.00 | 85 | 1020.4 |
| 20260831233050 | 15 | 293 | 0.0 | 0.0 | 0.00 | 0.89 | 0.00 | 84 | 1020.3 |
| 20260831231557 | 15 | 293 | 0.0 | 0.0 | 0.00 | 0.89 | 0.00 | 84 | 1020.3 |
| 20260831230049 | 15 | 293 | 0.0 | 0.0 | 0.00 | 0.89 | 0.00 | 83 | 1020.3 |
| 20260831224546 | 15 | 293 | 0.0 | 0.0 | 0.00 | 0.89 | 0.00 | 82 | 1020.3 |
| 20260831223045 | 15 | 293 | 0.0 | 0.0 | 0.00 | 0.89 | 0.00 | 82 | 1020.2 |
| 20260831221545 | 15 | 293 | 0.0 | 0.0 | 0.00 | 0.89 | 0.00 | 83 | 1020.2 |
| 20260831220042 | 15 | 293 | 0.0 | 0.0 | 0.00 | 0.89 | 0.00 | 81 | 1020.2 |
| 20260831214540 | 15 | 293 | 0.0 | 0.0 | 0.00 | 0.89 | 0.89 | 80 | 1020.0 |
| 20260831213043 | 16 | 293 | 0.0 | 0.0 | 0.00 | 0.89 | 0.89 | 79 | 1020.0 |
| 20260831211537 | 16 | 293 | 0.0 | 0.0 | 0.00 | 0.89 | 0.89 | 78 | 1019.9 |
| 20260831210035 | 16 | 293 | 0.0 | 0.0 | 0.00 | 0.89 | 0.89 | 79 | 1019.8 |